Location: Champs
(48.8539°N, 2.6040°E)
Time: 18:17:57
(UTC+00:00)

Cosmos 2056 Rocket - Pass Details

Date: 06 June 2022
Orbit: 741 x 801 km, 74.0° (Epoch: 01 July)

Event Time Altitude Azimuth Distance (km) Brightness Sun altitude
Exits shadow 02:05:17 17° 222° (SW) 1,882 4.9 -12.2°
Maximum altitude 02:09:18 58° 297° (WNW) 907 3.8 -11.9°
Drops below altitude 10° 02:14:35 10° 17° (NNE) 2,358 7.4 -11.4°
Sets 02:17:03 0° 21° (NNE) 3,299 8.6 -11.2°
